Location: Unspecified
(47.1121°N, 116.3927°W)
Time: 23:59:35
(UTC-08:00)

Resurs 1-4 Rocket - Pass Details

Date: 22 October 2019
Orbit: 800 x 813 km, 98.6° (Epoch: 14 November)

Event Time Altitude Azimuth Distance (km) Brightness Sun altitude
Rises 03:41:27 0° 5° (N) 3,348 5.7 -36.1°
Reaches altitude 10° 03:44:04 10° 355° (N) 2,413 4.7 -35.7°
Enters shadow 03:44:05 10° 355° (N) 2,406 4.7 -35.7°
